Flag for Germany Weather past 2 weeks in Greifswald, Mecklenburg-Western Pomerania, Germany

Now
45 °F

Light rain. Overcast.


Feels Like: 40 °F
Forecast: 43 / 60 °F
Wind: 10 mph from Northeast

Location: Greifswald


UV Index: 0 (Low)

Visibility: 6 mi


Pressure: 30.23 "Hg

Humidity: 93%

Dew point: 44 °F

Location of GreifswaldLocation

Historic Weather in Greifswald

°F

Greifswald temperature yesterday

Maximum temperature yesterday: 59 °F (at 6:00 PM)
Minimum temperature yesterday: 46 °F (at 1:00 AM)
Average temperature yesterday: 53 °F

Past Weeks' High & Low Weather Summary

 TemperatureHumidityPressure
High61 °F (Apr 21, 1:00 PM)100% (Apr 12, 3:00 AM)30.45 "Hg (Apr 12, 3:00 AM)
Low33 °F (Apr 16, 6:00 AM)34% (Apr 17, 1:00 PM)29.57 "Hg (Apr 14, 9:00 AM)
Average48 °F81%30.02 "Hg
* Reported Apr 8 10:00 PM — Apr 23 10:00 PM, Greifswald, Weather by CustomWeather, © 2014

Note: Actual official high and low records may vary slightly from our data, if they occured in-between our weather recording intervals... More about our weather records

Advertising

Historic Weather Conditions — Data for Previous 24 hours

 ConditionsComfort  
Time TempWeatherWind HumidityBarometerVisibility
10:00 PM
Apr 23
45 °FLight rain. Overcast.10 mph93%30.23 "Hg6 mi
9:00 PM46 °FOvercast.10 mph92%30.22 "Hg16 mi
8:00 PM46 °FLight rain. Overcast.12 mph93%30.22 "Hg5 mi
7:00 PM46 °FLight rain. Overcast.12 mph91%30.20 "Hg16 mi
6:00 PM47 °FOvercast.9 mph91%30.20 "Hg17 mi
5:00 PM48 °FLight rain. Low clouds.8 mph95%30.20 "Hg8 mi
4:00 PM48 °FLight rain. Low clouds.8 mph94%30.20 "Hg6 mi
3:00 PM49 °FLight rain. Low clouds.7 mph95%30.19 "Hg6 mi
2:00 PM50 °FLight rain. Low clouds.7 mph91%30.18 "Hg6 mi
1:00 PM49 °FLight rain. Low clouds.7 mph92%30.17 "Hg13 mi
12:00 PM50 °FLight rain. Overcast.7 mph90%30.17 "Hg13 mi
11:00 AM50 °FLight rain. Low clouds.7 mph90%30.16 "Hg14 mi
10:00 AM49 °FLight rain. Low clouds.7 mph94%30.14 "Hg8 mi
9:00 AM48 °FLow clouds.7 mph97%30.12 "Hg6 mi
8:00 AM48 °FRain. Low clouds.7 mph97%30.11 "Hg2 mi
7:00 AM48 °FRain. Low clouds.3 mph96%30.10 "Hg1 mi
6:00 AM48 °FLow clouds.5 mph92%30.08 "Hg7 mi
5:00 AM48 °FLight rain. Low clouds.5 mph93%30.07 "Hg6 mi
4:00 AM48 °FLow clouds.6 mph93%30.06 "Hg5 mi
3:00 AM49 °FPassing clouds.6 mph92%30.05 "Hg6 mi
2:00 AM49 °FPassing clouds.5 mph93%30.05 "Hg6 mi
1:00 AM49 °FFog.5 mph93%30.04 "Hg4 mi
12:00 AM48 °FClear.3 mph92%30.03 "Hg5 mi
11:00 PM
Apr 22
51 °FOvercast.3 mph88%30.03 "Hg7 mi
Weather by CustomWeather, © 2014

See weather overview